Location: ???????
(56.2167°N, 38.0500°E)
Time: 14:20:17
(UTC+00:00)

Cosmos 1862 Rocket - Pass Details

Date: 19 May 2025
Orbit: 597 x 627 km, 82.5° (Epoch: 20 June)

Event Time Altitude Azimuth Distance (km) Brightness Sun altitude
Exits shadow 23:41:20 - 179° (S) 2,286 6.0 -8.5°
Reaches altitude 10° 23:42:03 10° 178° (S) 1,996 5.7 -8.4°
Maximum altitude 23:46:26 64° 98° (E) 697 4.0 -8.1°
Drops below altitude 10° 23:50:52 10° 17° (NNE) 2,020 7.6 -7.8°
Sets 23:53:08 0° 15° (NNE) 2,932 8.6 -7.6°
